BAW461 LEMD-EGLL

Flight info

Callsign BAW461
Flight time 1h 39m
Altitude 34000
Route SIE1X SIE N858 DGO N867 NENEM DCT DIDIG UP87 ROXOG ROXOG1H
Aircraft B772/H-SDE1E3FGHIJ3J4J5J6M1M2P2RWXYZ/LB1D1

Departure

Time 2026-04-30 13:30
Airport Adolfo Suárez Madrid–Barajas Airport (LEMD)

Arrival

Time 2026-04-30 15:10
Airport London Heathrow Airport (EGLL)
Time Latitude Longitude Altitude Speed Heading
2026-04-30 12:56 40.49216 -3.56649 1976 ft 0 kts 269°
2026-04-30 13:17 40.49216 -3.56646 1979 ft 3 kts 269°
2026-04-30 13:17 40.49217 -3.56583 1975 ft 4 kts 272°
2026-04-30 13:18 40.49210 -3.56552 1980 ft 4 kts 321°
2026-04-30 13:18 40.49166 -3.56543 1977 ft 1 kts 359°
2026-04-30 13:25 40.49217 -3.56543 1974 ft 5 kts 359°
2026-04-30 13:25 40.49284 -3.56544 1974 ft 5 kts 359°
2026-04-30 13:26 40.49441 -3.56547 1976 ft 24 kts 359°
2026-04-30 13:26 40.49748 -3.56546 1975 ft 21 kts
2026-04-30 13:27 40.49933 -3.56482 1974 ft 13 kts 78°
2026-04-30 13:28 40.49941 -3.56129 1963 ft 13 kts 90°
2026-04-30 13:28 40.50022 -3.55938 1964 ft 13 kts 22°
2026-04-30 13:28 40.50110 -3.55922 1964 ft 13 kts 359°
2026-04-30 13:29 40.50150 -3.55924 1965 ft 0 kts 359°
2026-04-30 13:29 40.50609 -3.55923 1974 ft 102 kts 359°
2026-04-30 13:30 40.54089 -3.55924 3545 ft 194 kts 360°
2026-04-30 13:31 40.57193 -3.56020 4219 ft 253 kts 356°
2026-04-30 13:31 40.62862 -3.56483 6398 ft 282 kts 355°
2026-04-30 13:32 40.66825 -3.56799 8089 ft 289 kts 355°
2026-04-30 13:32 40.70890 -3.57112 9652 ft 296 kts 355°
2026-04-30 13:33 40.75123 -3.57436 10605 ft 329 kts 355°
2026-04-30 13:33 40.79885 -3.57799 12034 ft 352 kts 355°
2026-04-30 13:34 40.82346 -3.57988 13093 ft 356 kts 354°
2026-04-30 13:34 40.89894 -3.58564 16291 ft 369 kts 354°
2026-04-30 13:35 40.92474 -3.58759 17269 ft 374 kts 354°
2026-04-30 13:35 40.97707 -3.59159 19136 ft 384 kts 353°
2026-04-30 13:36 41.03118 -3.59574 20956 ft 394 kts 353°
2026-04-30 13:36 41.05873 -3.59785 21821 ft 399 kts 353°
2026-04-30 13:36 41.11486 -3.60214 23484 ft 408 kts 353°
2026-04-30 13:37 41.14359 -3.60096 24210 ft 419 kts
2026-04-30 13:37 41.20045 -3.58035 25702 ft 435 kts 19°
2026-04-30 13:38 41.25700 -3.54861 27059 ft 447 kts 19°
2026-04-30 13:38 41.28574 -3.53241 27732 ft 451 kts 19°
2026-04-30 13:38 41.34419 -3.49995 28994 ft 459 kts 18°
2026-04-30 13:39 41.40341 -3.46741 30060 ft 468 kts 18°
2026-04-30 13:39 41.46407 -3.43404 31047 ft 475 kts 18°
2026-04-30 13:40 41.49474 -3.41715 31504 ft 479 kts 18°
2026-04-30 13:40 41.52564 -3.40012 31972 ft 482 kts 18°
2026-04-30 13:40 41.55668 -3.38302 32446 ft 484 kts 18°
2026-04-30 13:40 41.58791 -3.36580 32875 ft 487 kts 18°
2026-04-30 13:41 41.61935 -3.34845 33269 ft 490 kts 18°
2026-04-30 13:41 41.65057 -3.33121 33625 ft 494 kts 18°
2026-04-30 13:41 41.68235 -3.31362 33984 ft 497 kts 18°
2026-04-30 13:41 41.71439 -3.29585 34352 ft 499 kts 18°
2026-04-30 13:42 41.74645 -3.27805 34748 ft 500 kts 18°
2026-04-30 13:42 41.77859 -3.26018 35209 ft 499 kts 18°
2026-04-30 13:42 41.84248 -3.22461 36233 ft 495 kts 18°
2026-04-30 13:43 41.87418 -3.20694 36717 ft 493 kts 18°
2026-04-30 13:43 41.90583 -3.18927 37170 ft 491 kts 18°
2026-04-30 13:43 41.93684 -3.17193 37767 ft 486 kts 18°
2026-04-30 13:43 41.96799 -3.15452 38138 ft 486 kts 18°
2026-04-30 13:44 42.03099 -3.11931 38115 ft 490 kts 18°
2026-04-30 13:44 42.09330 -3.08431 38103 ft 483 kts 18°
2026-04-30 13:45 42.18645 -3.03193 38109 ft 484 kts 18°
2026-04-30 13:46 42.24816 -2.99713 38115 ft 484 kts 18°
2026-04-30 13:46 42.31045 -2.96190 38115 ft 485 kts 18°
2026-04-30 13:47 42.37273 -2.92659 38106 ft 485 kts 18°
2026-04-30 13:47 42.43560 -2.89452 38093 ft 478 kts
2026-04-30 13:48 42.50030 -2.88235 38086 ft 469 kts 355°
2026-04-30 13:48 42.56507 -2.88547 38092 ft 465 kts 352°
2026-04-30 13:49 42.62975 -2.88964 38083 ft 466 kts 352°
2026-04-30 13:49 42.69456 -2.89334 38091 ft 466 kts 353°
2026-04-30 13:50 42.75897 -2.89670 38086 ft 467 kts 353°
2026-04-30 13:50 42.85635 -2.90167 38067 ft 467 kts 353°
2026-04-30 13:51 42.92116 -2.90502 38079 ft 466 kts 353°
2026-04-30 13:51 42.98557 -2.90836 38075 ft 466 kts 353°
2026-04-30 13:52 43.05045 -2.91173 38090 ft 467 kts 353°
2026-04-30 13:52 43.11539 -2.91514 38086 ft 467 kts 353°
2026-04-30 13:53 43.18042 -2.91853 38076 ft 468 kts 353°
2026-04-30 13:53 43.24495 -2.92189 38067 ft 467 kts 353°
2026-04-30 13:54 43.30967 -2.92717 38072 ft 464 kts 348°
2026-04-30 13:54 43.37239 -2.94508 38086 ft 459 kts 342°
2026-04-30 13:55 43.43460 -2.96540 38073 ft 460 kts 342°
2026-04-30 13:55 43.49694 -2.98524 38080 ft 460 kts 343°
2026-04-30 13:56 43.55893 -3.00468 38088 ft 460 kts 343°
2026-04-30 13:56 43.62138 -3.02428 38087 ft 460 kts 343°
2026-04-30 13:57 43.68378 -3.04392 38083 ft 460 kts 343°
2026-04-30 13:57 43.74649 -3.06239 38087 ft 463 kts 344°
2026-04-30 13:58 43.84171 -3.08940 38822 ft 468 kts 345°
2026-04-30 13:58 43.87352 -3.09855 39147 ft 468 kts 345°
2026-04-30 13:59 43.90542 -3.10777 39403 ft 469 kts 345°
2026-04-30 13:59 43.93740 -3.11704 39641 ft 470 kts 345°
2026-04-30 13:59 43.96951 -3.12633 39885 ft 472 kts 345°
2026-04-30 13:59 44.00126 -3.13549 40019 ft 474 kts 346°
2026-04-30 14:00 44.03415 -3.14082 40088 ft 480 kts 356°
2026-04-30 14:00 44.10065 -3.13055 40089 ft 483 kts 13°
2026-04-30 14:00 44.13276 -3.11702 40095 ft 482 kts 15°
2026-04-30 14:01 44.19646 -3.08809 40092 ft 481 kts 16°
2026-04-30 14:01 44.25964 -3.05949 40094 ft 481 kts 15°
2026-04-30 14:02 44.32350 -3.03124 40095 ft 482 kts 15°
2026-04-30 14:02 44.38756 -3.00317 40093 ft 483 kts 15°
2026-04-30 14:03 44.45171 -2.97503 40095 ft 484 kts 15°
2026-04-30 14:03 44.51602 -2.94674 40094 ft 485 kts 15°
2026-04-30 14:04 44.57990 -2.91854 40091 ft 484 kts 15°
2026-04-30 14:04 44.64415 -2.89011 40092 ft 484 kts 16°
2026-04-30 14:05 44.70836 -2.86163 40091 ft 483 kts 16°
2026-04-30 14:05 44.77244 -2.83315 40093 ft 483 kts 16°
2026-04-30 14:06 44.86808 -2.79051 40092 ft 483 kts 16°
2026-04-30 14:07 44.96407 -2.74757 40093 ft 483 kts 16°
2026-04-30 14:08 45.06008 -2.70447 40093 ft 482 kts 16°
2026-04-30 14:08 45.15551 -2.66147 40094 ft 482 kts 16°
2026-04-30 14:09 45.21948 -2.63257 40098 ft 482 kts 16°
2026-04-30 14:10 45.31531 -2.58914 40094 ft 482 kts 17°
2026-04-30 14:10 45.37874 -2.56031 40088 ft 481 kts 17°
2026-04-30 14:11 45.44250 -2.53126 40094 ft 481 kts 17°
2026-04-30 14:11 45.50618 -2.50217 40092 ft 480 kts 17°
2026-04-30 14:12 45.56982 -2.47304 40093 ft 480 kts 17°
2026-04-30 14:12 45.63309 -2.44401 40093 ft 481 kts 17°
2026-04-30 14:13 45.69670 -2.41475 40099 ft 480 kts 17°
2026-04-30 14:13 45.76037 -2.38540 40103 ft 480 kts 17°
2026-04-30 14:14 45.82399 -2.35599 40103 ft 481 kts 17°
2026-04-30 14:14 45.88767 -2.32648 40100 ft 481 kts 17°
2026-04-30 14:15 45.95093 -2.29710 40105 ft 481 kts 17°
2026-04-30 14:15 46.01460 -2.26746 40100 ft 480 kts 17°
2026-04-30 14:16 46.07894 -2.24217 40103 ft 479 kts
2026-04-30 14:16 46.14464 -2.22637 40103 ft 479 kts
2026-04-30 14:17 46.21012 -2.21124 40103 ft 480 kts
2026-04-30 14:17 46.27598 -2.19549 40100 ft 480 kts
2026-04-30 14:18 46.34183 -2.17931 40101 ft 480 kts
2026-04-30 14:18 46.44000 -2.15517 40101 ft 480 kts
2026-04-30 14:19 46.53868 -2.13082 40099 ft 480 kts
2026-04-30 14:20 46.60449 -2.11452 40092 ft 480 kts
2026-04-30 14:20 46.70277 -2.09012 40084 ft 480 kts
2026-04-30 14:21 46.76862 -2.07372 40083 ft 480 kts
2026-04-30 14:22 46.86733 -2.04906 40082 ft 480 kts
2026-04-30 14:22 46.96553 -2.02444 40083 ft 479 kts
2026-04-30 14:23 47.09703 -1.99167 40084 ft 480 kts
2026-04-30 14:24 47.19585 -1.96723 40076 ft 480 kts
2026-04-30 14:25 47.32708 -1.93436 40060 ft 480 kts
2026-04-30 14:26 47.42574 -1.90904 40060 ft 480 kts
2026-04-30 14:27 47.52406 -1.88374 40065 ft 481 kts
2026-04-30 14:27 47.59000 -1.86676 40063 ft 481 kts
2026-04-30 14:28 47.68892 -1.84119 40070 ft 482 kts
2026-04-30 14:28 47.75447 -1.82419 40070 ft 481 kts
2026-04-30 14:29 47.87511 -1.79279 40047 ft 480 kts
2026-04-30 14:31 48.05027 -1.74707 40038 ft 480 kts
2026-04-30 14:31 48.15001 -1.74149 40048 ft 479 kts 358°
2026-04-30 14:32 48.24955 -1.74395 40047 ft 479 kts 359°
2026-04-30 14:33 48.31625 -1.74497 40050 ft 480 kts 359°
2026-04-30 14:33 48.41633 -1.74612 40052 ft 479 kts 359°
2026-04-30 14:34 48.48308 -1.74689 40063 ft 480 kts 359°
2026-04-30 14:34 48.54941 -1.74767 40052 ft 480 kts 359°
2026-04-30 14:35 48.64959 -1.74887 40050 ft 480 kts 359°
2026-04-30 14:36 48.71644 -1.74967 40058 ft 480 kts 359°
2026-04-30 14:36 48.78332 -1.75047 40058 ft 481 kts 359°
2026-04-30 14:37 48.84972 -1.75127 40058 ft 481 kts 359°
2026-04-30 14:37 48.91664 -1.75205 40060 ft 480 kts 360°
2026-04-30 14:38 48.98351 -1.75028 40063 ft 481 kts
2026-04-30 14:38 49.05036 -1.74712 40066 ft 481 kts
2026-04-30 14:39 49.11678 -1.74425 40074 ft 481 kts
2026-04-30 14:39 49.18369 -1.74168 40077 ft 481 kts
2026-04-30 14:40 49.28415 -1.73793 40087 ft 482 kts
2026-04-30 14:40 49.35075 -1.73541 40083 ft 482 kts
2026-04-30 14:41 49.41778 -1.73286 40086 ft 482 kts
2026-04-30 14:41 49.48482 -1.73030 40095 ft 482 kts
2026-04-30 14:42 49.55185 -1.72773 40040 ft 480 kts
2026-04-30 14:42 49.58456 -1.72648 39803 ft 473 kts
2026-04-30 14:42 49.61744 -1.72493 39208 ft 473 kts
2026-04-30 14:43 49.65034 -1.72240 38475 ft 475 kts
2026-04-30 14:43 49.68344 -1.71940 37775 ft 477 kts
2026-04-30 14:43 49.71644 -1.71632 37224 ft 472 kts
2026-04-30 14:43 49.74882 -1.71339 36711 ft 461 kts
2026-04-30 14:44 49.78067 -1.71060 36012 ft 456 kts
2026-04-30 14:44 49.81238 -1.70789 35129 ft 458 kts
2026-04-30 14:44 49.84432 -1.70519 34689 ft 459 kts
2026-04-30 14:44 49.87565 -1.70255 34197 ft 457 kts
2026-04-30 14:45 49.90729 -1.69987 33710 ft 454 kts
2026-04-30 14:45 49.93875 -1.69721 33225 ft 451 kts
2026-04-30 14:45 49.97006 -1.69450 32736 ft 448 kts
2026-04-30 14:45 50.00085 -1.68878 32239 ft 444 kts 13°
2026-04-30 14:46 50.03073 -1.67834 31753 ft 438 kts 20°
2026-04-30 14:46 50.05964 -1.66427 31279 ft 434 kts 21°
2026-04-30 14:46 50.08832 -1.64982 30810 ft 431 kts 22°
2026-04-30 14:46 50.10717 -1.64032 30495 ft 430 kts 22°
2026-04-30 14:47 50.14474 -1.62158 29865 ft 427 kts 22°
2026-04-30 14:47 50.17303 -1.60763 29367 ft 425 kts 21°
2026-04-30 14:47 50.20120 -1.59381 28859 ft 424 kts 22°
2026-04-30 14:47 50.22929 -1.58005 28351 ft 422 kts 22°
2026-04-30 14:48 50.25726 -1.56632 27847 ft 421 kts 22°
2026-04-30 14:48 50.28521 -1.55262 27345 ft 420 kts 22°
2026-04-30 14:48 50.31263 -1.53926 26856 ft 418 kts 22°
2026-04-30 14:48 50.34041 -1.52572 26356 ft 417 kts 22°
2026-04-30 14:49 50.36802 -1.51226 25859 ft 415 kts 22°
2026-04-30 14:49 50.39550 -1.49884 25364 ft 413 kts 22°
2026-04-30 14:49 50.42291 -1.48543 24882 ft 412 kts 22°
2026-04-30 14:49 50.45022 -1.47205 24390 ft 411 kts 22°
2026-04-30 14:50 50.50457 -1.44535 23418 ft 408 kts 22°
2026-04-30 14:50 50.53125 -1.43222 22944 ft 406 kts 23°
2026-04-30 14:51 50.58135 -1.39575 21995 ft 393 kts 35°
2026-04-30 14:51 50.60492 -1.37411 21530 ft 391 kts 36°
2026-04-30 14:51 50.65197 -1.33141 20609 ft 390 kts 34°
2026-04-30 14:52 50.67567 -1.31063 20138 ft 389 kts 34°
2026-04-30 14:52 50.72282 -1.26989 19204 ft 389 kts 33°
2026-04-30 14:52 50.74648 -1.24947 18739 ft 387 kts 33°
2026-04-30 14:53 50.79269 -1.20642 17776 ft 384 kts 38°
2026-04-30 14:53 50.81489 -1.18312 17303 ft 383 kts 38°
2026-04-30 14:54 50.85909 -1.13646 16351 ft 381 kts 38°
2026-04-30 14:54 50.90329 -1.09041 15382 ft 380 kts 38°
2026-04-30 14:55 50.94713 -1.04493 14420 ft 378 kts 37°
2026-04-30 14:55 50.96910 -1.02213 13940 ft 377 kts 37°
2026-04-30 14:55 51.01179 -0.97573 12999 ft 360 kts 46°
2026-04-30 14:56 51.04403 -0.91827 12333 ft 340 kts 54°
2026-04-30 14:56 51.07435 -0.86249 11688 ft 326 kts 53°
2026-04-30 14:57 51.08900 -0.83600 11375 ft 320 kts 53°
2026-04-30 14:57 51.11799 -0.78393 10768 ft 309 kts 53°
2026-04-30 14:58 51.14598 -0.73374 10180 ft 299 kts 53°
2026-04-30 14:58 51.15967 -0.70927 9960 ft 291 kts 53°
2026-04-30 14:58 51.18624 -0.66154 9354 ft 285 kts 53°
2026-04-30 14:59 51.21203 -0.61523 8781 ft 277 kts 53°
2026-04-30 15:00 51.24965 -0.54747 7994 ft 269 kts 53°
2026-04-30 15:00 51.27438 -0.50486 7588 ft 255 kts 41°
2026-04-30 15:01 51.30847 -0.50319 7239 ft 264 kts 324°
2026-04-30 15:01 51.31687 -0.51714 7198 ft 266 kts 300°
2026-04-30 15:01 51.33238 -0.58179 7182 ft 270 kts 285°
2026-04-30 15:02 51.33814 -0.61035 7156 ft 269 kts 285°
2026-04-30 15:02 51.34384 -0.63875 7154 ft 266 kts 285°
2026-04-30 15:03 51.36117 -0.72494 6413 ft 276 kts 285°
2026-04-30 15:03 51.37735 -0.77950 5486 ft 282 kts 322°
2026-04-30 15:04 51.41386 -0.79124 4661 ft 270 kts
2026-04-30 15:04 51.46805 -0.78383 3390 ft 229 kts 43°
2026-04-30 15:05 51.47674 -0.72700 2994 ft 170 kts 94°
2026-04-30 15:06 51.47678 -0.68976 2593 ft 157 kts 92°
2026-04-30 15:06 51.47687 -0.65564 2197 ft 150 kts 91°
2026-04-30 15:07 51.47700 -0.62312 1765 ft 144 kts 90°
2026-04-30 15:07 51.47709 -0.59031 1407 ft 150 kts 89°
2026-04-30 15:08 51.47723 -0.55902 998 ft 126 kts 88°
2026-04-30 15:08 51.47736 -0.51912 530 ft 119 kts 89°
2026-04-30 15:09 51.47745 -0.49137 222 ft 123 kts 89°
2026-04-30 15:09 51.47758 -0.46666 97 ft 82 kts 90°
2026-04-30 15:10 51.47665 -0.46105 93 ft 12 kts 141°
2026-04-30 15:11 51.47583 -0.47067 91 ft 20 kts 270°
2026-04-30 15:11 51.47580 -0.47543 90 ft 20 kts 269°
2026-04-30 15:12 51.47514 -0.48152 93 ft 15 kts 224°
2026-04-30 15:13 51.47382 -0.48356 91 ft 15 kts 180°
2026-04-30 15:14 51.47252 -0.48281 91 ft 4 kts 100°
2026-04-30 15:14 51.47250 -0.48239 91 ft 0 kts 92°
2026-04-30 15:16 51.47248 -0.48231 94 ft 0 kts 90°